A/2021 F1

Japanese version
Home page
Updated on September 18, 2021

---------------------------------------------------------------------

* Profile

Discovery Date March 19, 2021
Magnitude 21.81 mag
Discoverer Pan-STARRS 1 telescope (Haleakala)

* Pictures

* Orbital Elements

Epoch 2022 Apr. 11.0 TT = JDT 2459680.5
T 2022 Apr. 6.87625 TT                                  Rudenko
q   0.9954849            (2000.0)            P               Q
z  +0.0042240      Peri.  146.82331     +0.70300017     +0.60121049
 +/-0.0000088      Node   203.45138     +0.23496796     +0.30785623
e   0.9957951      Incl.  107.32429     +0.67125317     -0.73740795
H   17.5
From 131 observations 2021 Mar. 19-Aug. 9, mean residual 0".3.

* Finding Charts

* Magnitudes Graph

        H = 14.0  G = 0.15

---------------------------------------------------------------------

The orbital elements are published on M.P.E.C. 2021-R75.
The charts are made with StellaNavigator Ver.10 (AstroArts).
The magnitudes graphs are made with Comet for Windows.

---------------------------------------------------------------------

Copyright(C) Seiichi Yoshida (comet@aerith.net). All rights reserved.